CDT,Max TemperatureF,Mean TemperatureF,Min TemperatureF,Max Dew PointF,MeanDew PointF,Min DewpointF,Max Humidity, Mean Humidity, Min Humidity, Max Sea Level PressureIn, Mean Sea Level PressureIn, Min Sea Level PressureIn, Max VisibilityMiles, Mean VisibilityMiles, Min VisibilityMiles, Max Wind SpeedMPH, Mean Wind SpeedMPH, Max Gust SpeedMPH,PrecipitationIn, CloudCover, Events, WindDirDegrees
2011-9-1,87,82,77,79,76,72,100,84,66,30.04,30.00,29.96,10,9,2,28,11,39,0.20,3,Rain-Thunderstorm,87
2011-9-2,82,78,75,78,76,73,100,97,76,29.97,29.91,29.83,10,5,0,21,11,30,3.09,4,Fog-Rain-Thunderstorm,104
2011-9-3,81,78,75,79,77,75,100,98,89,29.82,29.68,29.59,10,4,0,33,18,45,3.68,4,Fog-Rain-Thunderstorm,120
2011-9-4,87,80,73,81,77,73,100,94,74,29.70,29.64,29.59,10,6,0,28,19,36,2.82,6,Fog-Rain-Thunderstorm,173
2011-9-5,82,74,65,80,74,59,100,91,74,29.85,29.54,29.44,10,8,0,33,18,46,0.98,7,Fog-Rain-Thunderstorm,249
2011-9-6,81,70,59,59,57,52,93,65,39,29.99,29.90,29.85,10,10,10,12,6,20,0.00,0,,346
2011-9-7,80,70,59,59,55,50,96,62,34,30.05,30.01,29.97,10,10,10,9,6,,0.00,0,Rain,12
2011-9-8,82,70,61,65,58,53,90,65,40,30.06,30.00,29.94,10,10,10,9,5,,0.00,0,Rain,340
2011-9-9,82,72,61,66,58,53,83,62,37,30.02,29.98,29.93,10,10,10,12,3,,0.00,0,,251
2011-9-10,84,73,62,65,60,54,90,63,35,30.07,30.02,29.99,10,10,10,12,3,,0.00,0,,236
2011-9-11,86,76,67,70,65,56,99,70,35,30.14,30.09,30.04,10,10,10,12,3,,0.00,0,,223
2011-9-12,88,78,69,74,68,62,100,72,42,30.17,30.10,30.04,10,10,6,12,5,,0.00,0,,231
2011-9-13,87,79,71,75,71,68,96,75,53,30.07,30.02,29.97,10,10,8,13,7,,0.00,0,,231
2011-9-14,88,80,73,77,74,64,100,79,44,30.01,29.97,29.91,10,10,5,13,5,,0.00,0,,217
2011-9-15,87,76,65,78,72,59,98,83,72,30.10,30.02,29.94,10,10,10,14,8,,0.00,2,,347
2011-9-16,79,70,64,68,62,59,94,77,62,30.16,30.11,30.07,10,10,10,14,8,,0.00,4,,38
2011-9-17,84,74,65,70,67,63,96,79,61,30.14,30.11,30.07,10,10,10,13,7,,0.00,1,Rain,102
2011-9-18,87,79,72,76,74,71,100,83,66,30.15,30.10,30.05,10,10,9,12,7,18,0.00,1,Rain,127
2011-9-19,82,78,73,77,74,70,100,89,74,30.06,29.99,29.94,10,8,0,16,10,22,0.84,7,Fog-Rain-Thunderstorm-Tornado,118
2011-9-20,85,78,71,75,73,71,100,90,71,29.99,29.95,29.91,10,10,9,12,6,,0.01,3,Rain,106
2011-9-21,85,78,72,75,73,70,100,84,66,30.04,30.00,29.96,10,10,10,12,5,,0.00,3,Thunderstorm,50
2011-9-22,87,80,73,74,72,68,100,82,63,30.04,30.00,29.96,10,10,9,20,6,24,0.00,4,Rain-Thunderstorm,69
2011-9-23,88,78,70,75,72,69,100,94,54,30.04,29.99,29.93,10,7,1,9,4,,0.00,6,,18
2011-9-24,84,75,66,73,70,66,98,79,64,30.00,29.94,29.90,10,10,10,9,7,,0.00,2,Rain,149
2011-9-25,86,81,76,73,71,68,83,74,54,29.95,29.89,29.83,10,10,10,15,8,,0.00,2,,210
2011-9-26,88,82,77,77,72,69,87,72,55,29.93,29.89,29.86,10,10,10,14,11,,0.00,0,,220
2011-9-27,87,81,76,77,73,67,96,78,53,30.00,29.93,29.89,10,10,10,13,6,,0.00,1,Rain,210
2011-9-28,90,78,68,79,72,64,95,82,55,30.00,29.92,29.87,10,9,1,20,10,26,0.73,4,Fog-Rain-Thunderstorm,245
2011-9-29,84,75,67,72,69,66,100,83,59,29.96,29.91,29.85,10,10,5,9,4,,0.00,2,Rain,54
2011-9-30,83,74,64,71,60,47,91,63,29,30.02,29.95,29.91,10,10,7,16,5,21,0.00,0,,349